Regional Weather Roundup
Issued by NWS Jackson, KY

Home | Current Version | Previous Version | Graphics & Text | Print | Product List | Glossary On
Versions: 1 2 3 4 5 6 7 8 9 10 11 12 13 14 15 16 17 18 19 20 21 22 23 24 25 26 27 28 29 30 31 32 33 34 35 36 37 38 39 40 41 42 43 44 45 46 47 48 49 50
000
ASUS43 KJKL 271310
RWRJKL

EAST KENTUCKY HOURLY WEATHER ROUNDUP
NATIONAL WEATHER SERVICE JACKSON KY
800 AM EST FRI FEB 27 2015

NOTE: "FAIR" INDICATES FEW OR NO CLOUDS BELOW 12,000 FEET WITH
NO SIGNIFICANT WEATHER AND/OR OBSTRUCTIONS TO VISIBILITY.

* THESE REPORTS ARE NOT UNDER NWS QUALITY CONTROL AND MAY NOT
  REPORT WEATHER SUCH AS PRECIPITATION AND FOG.

KYZ079-080-083-085-087-088-110-112-115-119-120-271400
...EASTERN KENTUCKY...

CITY           SKY/WX    TMP DP  RH WIND       PRES   REMARKS
JACKSON        CLEAR     12   4  70 N3        30.43R
LONDON         CLEAR     14   5  67 NW5       30.45R WCI   6
SOMERSET*      CLEAR     12   7  79 CALM      30.51R
MONTICELLO*    CLEAR     14   7  74 NE6       30.53R WCI   5
MIDDLESBORO*   FLURRIES  19  13  76 N9        30.44R WCI   9
HAZARD APT*    PTSUNNY   16   9  73 N3        30.44R
BLACK MTN*       N/A     10  10 100 NE6         N/A  WCI   1
PIKEVILLE APT* LGT SNOW  14  10  85 NW5       30.40R WCI   6
BIG SANDY*     FLURRIES  15   9  76 N6        30.43R WCI   7
MOREHEAD APT*  SUNNY      9   3  78 CALM      30.50R
$$

KYZ035-036-041-042-044-050-067-078-099-271400
...CENTRAL KENTUCKY...

CITY           SKY/WX    TMP DP  RH WIND       PRES   REMARKS
MT STERLING*   CLEAR      9   5  85 CALM      30.50R
FLEMING/MASON* CLEAR      7   3  85 CALM      30.51R
DANVILLE*      CLEAR      7   3  85 CALM      30.51R
RICHMOND*      CLEAR     10   5  79 CALM      30.48R
LEXINGTON      CLEAR      7   4  87 CALM      30.50R
FRANKFORT      CLOUDY    10   3  73 NW7       30.51R WCI  -1
$$

KYZ091>093-OHZ055-061-077-WVZ005-015-034-035-042-271400
...SOUTHERN OHIO/WEST VIRGINIA...

CITY           SKY/WX    TMP DP  RH WIND       PRES   REMARKS
COVINGTON      PTCLDY     7   0  73 CALM      30.50R
COLUMBUS       MOCLDY     6   2  83 CALM      30.48R
DAYTON         PTCLDY     2  -4  76 W5        30.48R WCI  -8
WILMINGTON     CLOUDY     7   3  84 SW3       30.46R FOG
HUNTINGTON     CLEAR     11   5  77 N6        30.48R WCI   1
CHARLESTON     FLURRIES  13   6  74 VRB5      30.45R WCI   5
PINEVILLE*     LGT SNOW  20  15  83 MISG      30.39R
BECKLEY        LGT SNOW  14   8  77 N9        30.28R WCI   2
BLUEFIELD      LGT SNOW  19  13  77 CALM      30.24R VSB 3/4
$$

VAZ002-007-008-TNZ017-027-036-066-071-271400
...SOUTHWEST VIRGINIA/EAST TENNESSEE...

CITY           SKY/WX    TMP DP  RH WIND       PRES   REMARKS
WISE*          LGT SNOW  19  16  86 N7        30.28R WCI  10
JONESVILLE*    MIX PCPN  23  16  74 NW7       30.39R WCI  15
ABINGDON*      FLURRIES  25  19  78 N7        30.30R WCI  17
BRISTOL        CLOUDY    26  19  74 N6        30.33R WCI  19
KNOXVILLE      CLOUDY    25  17  72 N10       30.40R WCI  15
OAK RIDGE      CLOUDY    25  18  74 NE5       30.43R WCI  19
CROSSVILLE     PTCLDY    18   9  68 N8        30.39R WCI   8
NASHVILLE      PTCLDY    19  13  77 N9        30.52R WCI   8
$$

...KEY TO REMARKS...
VSB - VISIBILITY IN MILES
WCI - WIND CHILL INDEX
HX  - HEAT INDEX

$$



USA.gov is the U.S. government's official web portal to all federal, state and local government web resources and services.